Location: Newark
(48.5667°N, 12.8167°E)
Time: 04:34:31
(UTC+00:00)

FO-29 - Visible Passes

Search period start: 13 November 2019 00:00
Search period end: 23 November 2019 00:00
Orbit: 800 x 1321 km, 98.6° (Epoch: 12 November)

Date Brightness Start Highest point End Pass type
(mag) Time Alt. Az. Time Alt. Az. Time Alt. Az.
13 Nov 12.0 16:23:29 10° NNW 16:27:25 16° NW 16:31:07 10° W visible
15 Nov 12.0 16:18:32 10° NNW 16:22:30 17° NW 16:26:14 10° W visible
17 Nov 11.9 16:13:33 10° N 16:17:34 17° NW 16:21:20 10° W visible
19 Nov 11.8 16:08:35 10° N 16:12:38 18° NW 16:16:25 10° W visible
21 Nov 11.8 16:03:36 10° N 16:07:41 18° NW 16:11:29 10° W visible
